• In Belarus
  • List of Countries
  • For 7 days
  • Water Temperature
  • Satellite Maps
  • Weather Map
  • Weather Widgets
  • user-avatar
    Login

    Hourly Weather Windhuk

    Today, 21 February, Thursday

    Time Temperature Precipitation Wind Pressure Humidity
    00:00 +24°C° 0 mm 1 mps 624 mmHg 52%
    01:00 +22°C° 0 mm 0 mps 624 mmHg 51%
    02:00 +24°C° 0 mm 1 mps 624 mmHg 52%
    03:00 +23°C° 0 mm 1 mps 624 mmHg 52%
    04:00 +23°C° 0 mm 1 mps 624 mmHg 53%
    05:00 +23°C° 0 mm 1 mps 624 mmHg 50%
    06:00 +24°C° 0 mm 2 mps 625 mmHg 48%
    07:00 +24°C° 0 mm 2 mps 626 mmHg 45%
    08:00 +26°C° 0 mm 3 mps 626 mmHg 39%
    09:00 +28°C° 0 mm 4 mps 627 mmHg 33%
    10:00 +29°C° 0 mm 4 mps 627 mmHg 28%
    11:00 +30°C° 0 mm 4 mps 627 mmHg 25%
    12:00 +32°C° 0 mm 4 mps 627 mmHg 23%
    13:00 +33°C° 0 mm 5 mps 627 mmHg 20%
    14:00 +33°C° 0 mm 4 mps 626 mmHg 20%
    15:00 +33°C° 0 mm 4 mps 626 mmHg 20%
    16:00 +32°C° 0 mm 4 mps 625 mmHg 20%
    17:00 +30°C° 0 mm 3 mps 625 mmHg 21%
    18:00 +29°C° 0 mm 3 mps 625 mmHg 23%
    19:00 +28°C° 0 mm 3 mps 625 mmHg 24%
    20:00 +27°C° 0 mm 2 mps 625 mmHg 26%
    21:00 +26°C° 0 mm 2 mps 625 mmHg 28%
    22:00 +25°C° 0 mm 2 mps 625 mmHg 29%
    23:00 +25°C° 0 mm 2 mps 625 mmHg 31%

    Tomorrow, 22 February, Friday

    Time Temperature Precipitation Wind Pressure Humidity
    00:00 +25°C° 0 mm 2 mps 625 mmHg 33%
    01:00 +24°C° 0 mm 1 mps 625 mmHg 35%
    02:00 +24°C° 0 mm 1 mps 625 mmHg 34%
    03:00 +25°C° 0 mm 1 mps 625 mmHg 34%
    04:00 +25°C° 0 mm 1 mps 625 mmHg 34%
    05:00 +25°C° 0 mm 1 mps 625 mmHg 33%
    06:00 +26°C° 0 mm 1 mps 626 mmHg 33%
    07:00 +26°C° 0 mm 1 mps 626 mmHg 32%
    08:00 +28°C° 0 mm 1 mps 627 mmHg 28%
    09:00 +29°C° 0 mm 1 mps 627 mmHg 24%
    10:00 +31°C° 0 mm 1 mps 628 mmHg 20%
    11:00 +31°C° 0 mm 2 mps 627 mmHg 19%
    12:00 +31°C° 0 mm 2 mps 627 mmHg 18%
    13:00 +31°C° 0 mm 2 mps 626 mmHg 18%
    14:00 +31°C° 0 mm 2 mps 626 mmHg 18%
    15:00 +32°C° 0 mm 1 mps 625 mmHg 18%
    16:00 +32°C° 0 mm 1 mps 625 mmHg 18%
    17:00 +30°C° 0 mm 1 mps 625 mmHg 21%
    18:00 +29°C° 0 mm 1 mps 624 mmHg 24%
    19:00 +26°C° 0 mm 0 mps 624 mmHg 27%
    20:00 +27°C° 0 mm 1 mps 624 mmHg 27%
    21:00 +27°C° 0 mm 1 mps 624 mmHg 28%
    22:00 +26°C° 0 mm 1 mps 625 mmHg 28%
    23:00 +26°C° 0 mm 1 mps 624 mmHg 28%

    Day after tomorrow, 23 February, Saturday

    Time Temperature Precipitation Wind Pressure Humidity
    00:00 +26°C° 0 mm 1 mps 624 mmHg 29%
    01:00 +26°C° 0 mm 2 mps 624 mmHg 29%
    02:00 +26°C° 0 mm 2 mps 624 mmHg 29%
    03:00 +26°C° 0 mm 2 mps 624 mmHg 30%
    04:00 +26°C° 0 mm 2 mps 623 mmHg 30%
    05:00 +26°C° 0 mm 2 mps 624 mmHg 29%
    06:00 +26°C° 0 mm 3 mps 624 mmHg 29%
    07:00 +26°C° 0 mm 3 mps 625 mmHg 29%
    08:00 +28°C° 0 mm 4 mps 625 mmHg 26%
    09:00 +30°C° 0 mm 5 mps 626 mmHg 23%
    10:00 +32°C° 0 mm 6 mps 627 mmHg 20%
    11:00 +33°C° 0 mm 5 mps 626 mmHg 19%
    12:00 +33°C° 0 mm 4 mps 626 mmHg 19%
    13:00 +33°C° 0 mm 3 mps 625 mmHg 18%
    14:00 +32°C° 0 mm 2 mps 624 mmHg 18%
    15:00 +32°C° 0 mm 2 mps 624 mmHg 19%
    16:00 +31°C° 0 mm 1 mps 623 mmHg 19%
    17:00 +30°C° 0 mm 2 mps 623 mmHg 22%
    18:00 +28°C° 0 mm 2 mps 623 mmHg 25%
    19:00 +27°C° 0 mm 3 mps 623 mmHg 28%
    20:00 +26°C° 0 mm 3 mps 623 mmHg 30%
    21:00 +26°C° 0 mm 3 mps 623 mmHg 32%
    22:00 +25°C° 0 mm 4 mps 623 mmHg 34%
    23:00 +25°C° 0 mm 3 mps 623 mmHg 34%

    24 February, Sunday

    Time Temperature Precipitation Wind Pressure Humidity
    00:00 +24°C° 0 mm 3 mps 623 mmHg 35%
    01:00 +24°C° 0 mm 3 mps 622 mmHg 35%
    02:00 +23°C° 0 mm 4 mps 622 mmHg 34%
    03:00 +23°C° 0 mm 4 mps 622 mmHg 32%
    04:00 +23°C° 0 mm 5 mps 622 mmHg 30%
    05:00 +23°C° 0 mm 5 mps 623 mmHg 30%
    06:00 +25°C° 0 mm 5 mps 623 mmHg 29%
    07:00 +25°C° 0 mm 5 mps 623 mmHg 28%
    08:00 +27°C° 0 mm 6 mps 624 mmHg 24%
    09:00 +29°C° 0 mm 8 mps 625 mmHg 19%
    10:00 +32°C° 0 mm 9 mps 626 mmHg 15%
    11:00 +33°C° 0 mm 8 mps 625 mmHg 14%
    12:00 +34°C° 0 mm 7 mps 625 mmHg 13%
    13:00 +35°C° 0 mm 5 mps 625 mmHg 12%
    14:00 +35°C° 0 mm 5 mps 624 mmHg 12%
    15:00 +35°C° 0 mm 4 mps 624 mmHg 12%
    16:00 +35°C° 0 mm 4 mps 623 mmHg 12%
    17:00 +33°C° 0 mm 4 mps 623 mmHg 13%
    18:00 +30°C° 0 mm 5 mps 623 mmHg 14%
    19:00 +29°C° 0 mm 5 mps 623 mmHg 16%
    20:00 +27°C° 0 mm 5 mps 623 mmHg 20%
    21:00 +26°C° 0 mm 5 mps 623 mmHg 24%
    22:00 +25°C° 0 mm 5 mps 622 mmHg 29%
    23:00 +23°C° 0 mm 5 mps 622 mmHg 28%

    25 February, Monday

    Time Temperature Precipitation Wind Pressure Humidity
    00:00 +23°C° 0 mm 5 mps 622 mmHg 28%
    01:00 +23°C° 0 mm 5 mps 622 mmHg 27%
    02:00 +22°C° 0 mm 5 mps 622 mmHg 27%
    03:00 +22°C° 0 mm 5 mps 622 mmHg 26%
    04:00 +21°C° 0 mm 5 mps 622 mmHg 26%
    05:00 +22°C° 0 mm 5 mps 622 mmHg 31%
    06:00 +22°C° 0 mm 6 mps 623 mmHg 36%
    07:00 +22°C° 0 mm 6 mps 623 mmHg 41%
    08:00 +24°C° 0 mm 6 mps 624 mmHg 36%
    09:00 +28°C° 0 mm 6 mps 625 mmHg 31%
    10:00 +30°C° 0 mm 6 mps 625 mmHg 26%
    11:00 +32°C° 0 mm 6 mps 625 mmHg 24%
    12:00 +33°C° 0 mm 5 mps 625 mmHg 22%
    13:00 +34°C° 0 mm 5 mps 624 mmHg 20%
    14:00 +33°C° 0 mm 4 mps 624 mmHg 21%
    15:00 +33°C° 0 mm 4 mps 623 mmHg 22%
    16:00 +31°C° 0 mm 3 mps 623 mmHg 23%
    17:00 +29°C° 0.3 mm 3 mps 623 mmHg 30%
    18:00 +27°C° 0.3 mm 4 mps 622 mmHg 36%
    19:00 +26°C° 0.3 mm 4 mps 622 mmHg 43%
    20:00 +25°C° 0.1 mm 4 mps 623 mmHg 44%
    21:00 +25°C° 0.1 mm 3 mps 623 mmHg 46%
    22:00 +24°C° 0.1 mm 3 mps 623 mmHg 47%
    23:00 +24°C° 0 mm 3 mps 623 mmHg 47%

    26 February, Tuesday

    Time Temperature Precipitation Wind Pressure Humidity
    00:00 +24°C° 0 mm 2 mps 623 mmHg 47%
    01:00 +23°C° 0 mm 2 mps 623 mmHg 47%
    02:00 +23°C° 0.2 mm 2 mps 622 mmHg 46%
    03:00 +23°C° 0.2 mm 1 mps 622 mmHg 45%
    04:00 +23°C° 0.2 mm 1 mps 622 mmHg 44%
    05:00 +23°C° 0 mm 1 mps 623 mmHg 40%
    06:00 +24°C° 0 mm 1 mps 623 mmHg 36%
    07:00 +24°C° 0 mm 2 mps 624 mmHg 32%
    08:00 +26°C° 0 mm 3 mps 625 mmHg 26%
    09:00 +28°C° 0 mm 4 mps 625 mmHg 21%
    10:00 +30°C° 0 mm 5 mps 626 mmHg 15%
    11:00 +30°C° 0 mm 4 mps 625 mmHg 16%
    12:00 +31°C° 0 mm 3 mps 625 mmHg 16%
    13:00 +32°C° 0 mm 2 mps 625 mmHg 16%
    14:00 +32°C° 0 mm 2 mps 624 mmHg 16%
    15:00 +32°C° 0 mm 1 mps 623 mmHg 16%
    16:00 +32°C° 0 mm 1 mps 623 mmHg 16%
    17:00 +31°C° 0 mm 2 mps 623 mmHg 18%
    18:00 +29°C° 0 mm 2 mps 623 mmHg 19%
    19:00 +28°C° 0 mm 3 mps 623 mmHg 20%
    20:00 +27°C° 0 mm 3 mps 623 mmHg 22%
    21:00 +26°C° 0 mm 2 mps 623 mmHg 24%
    22:00 +25°C° 0 mm 1 mps 623 mmHg 26%
    23:00 +24°C° 0 mm 2 mps 622 mmHg 25%
    Show more